Back to catalog

HULIANWANG DIGUI-134

AliveCommunicationsLEO
NORAD 67242·PAYLOAD·🇨🇳 China

Launched Dec 25, 2025 from Wenchang Space Launch Site

Loading…

Next Passes (next 24 hours)

TLE

FreshSource: Space-Track

Epoch: Sep 14, 2026, 01:58 UTC

1 67242U 25311G   26257.08247578 -.00000073  00000-0  11036-3 0  9991
2 67242  50.0030 156.9401 0000264 308.6423  51.4426 13.29325041 35162

Track HULIANWANG DIGUI-134 in real time with AllMySat

Download on the App Store